Preview of NWS' New Version of Forecast
This preview is not operational and should not be used for support decisions.

Regional Weather Roundup (RWR)

Issued by National Weather Service (NWS)

                            
000
ASUS44 KMEG 230800
RWRTN 
TENNESSEE HOURLY STATE WEATHER ROUNDUP
NATIONAL WEATHER SERVICE MEMPHIS TN
200 AM CST SAT FEB 23 2019

TNZ002-004-019-021-049-052-054-088>092-230900-
WEST TENNESSEE
  
CITY           SKY/WX    TMP DP  RH WIND       PRES   REMARKS
MEMPHIS INTL   HVY RAIN  58  58 100 SE8       29.96F FOG              
NWS MEMPHIS      N/A     56 N/A N/A MISG        N/A                   
JACKSON        RAIN      55  54  96 VRB6      29.99F FOG              
DYERSBURG      LGT RAIN  49  49 100 E7        29.97F                  
$$

TNZ008-025-027-028-033-062-065-066-230900-
NORTH MIDDLE TENNESSEE
  
CITY           SKY/WX    TMP DP  RH WIND       PRES   REMARKS
NASHVILLE      LGT RAIN  51  48  89 NE3       30.07F FOG              
CLARKSVILLE    LGT RAIN  44  42  93 SE10      30.05F FOG              
SMYRNA         LGT RAIN  52  51  97 SE3       30.08F                  
CROSSVILLE     LGT RAIN  49  48  97 SE6       30.11F                  
$$

TNZ061-075-076-078-094-096-097-230900-
SOUTH MIDDLE TENNESSEE
  
CITY           SKY/WX    TMP DP  RH WIND       PRES   REMARKS
$$

TNZ017-018-042-046-047-230900-
NORTHEAST TENNESSEE
  
CITY           SKY/WX    TMP DP  RH WIND       PRES   REMARKS
TRI CITIES     RAIN      49  48  97 E6        30.17F                  
$$

TNZ012-013-036-069-073-074-230900-
CENTRAL EAST TENNESSEE
  
CITY           SKY/WX    TMP DP  RH WIND       PRES   REMARKS
KNOXVILLE      RAIN      50  49  96 N6        30.12F FOG              
OAK RIDGE      RAIN      50  50 100 CALM      30.16S FOG              
$$

TNZ083-085-099-230900-
SOUTHEAST TENNESSEE
  
CITY           SKY/WX    TMP DP  RH WIND       PRES   REMARKS
CHATTANOOGA    LGT RAIN  51  51 100 CALM      30.13F FOG              
$$

SKY/WX REPORTED AS FAIR MEANS FEW OR NO CLOUDS BELOW
12 THOUSAND FEET.